Weather History for KLRO - December, 2012

Change the Weather History Date:

Saturday, December 29, 2012

  Actual Average (KCHS) Record (KCHS)
Temperature  
Mean Temperature 55 °F 48 °F  
Max Temperature 66 °F 59 °F 79 °F (1984)
Min Temperature 42 °F 38 °F 22 °F (1977)
Degree Days  
Heating Degree Days 10 17  
Month to date heating degree days 413  
Since 1 July heating degree days 705  
Cooling Degree Days 0 0  
Month to date cooling degree days 0  
Year to date cooling degree days 2297  
Growing Degree Days 5 (Base 50)    
Moisture  
Dew Point 47 °F    
Average Humidity 80    
Maximum Humidity 100    
Minimum Humidity 58    
Precipitation  
Precipitation 2.50 in 0.11 in 1.15 in (1950)
Month to date precipitation 2.89  
Year to date precipitation 50.81  
Sea Level Pressure  
Sea Level Pressure 29.84 in    
Wind  
Wind Speed 7 mph (WNW)    
Max Wind Speed 21 mph    
Max Gust Speed 29 mph    
Visibility 8 miles    
Events Rain    
T = Trace of Precipitation, MM = Missing Value Source: NWS Daily Summary

Daily Weather History Graph

Daily Weather History Graph

Search for Another Location

Airport or City:

Trip Planner

Search our weather history database for the weather conditions in past years. The results will help you decide how hot, cold, wet, or windy it might be!

Date:

Astronomy

Dec. 29, 2012 Rise Set
Actual Time 7:21 AM EST 5:21 PM EST
Civil Twilight 6:53 AM EST 5:49 PM EST
Nautical Twilight 6:23 AM EST 6:19 PM EST
Astronomical Twilight 5:53 AM EST 6:50 PM EST
Moon 6:47 PM EST (12/29) 7:58 AM EST (12/29)
Length of Visible Light 10h 55m
Length of Day
10h 00m
Full, 98% of the Moon is Illuminated
Dec 29
Full
Jan 4
Last Quarter
Jan 11
New
Jan 18
First Quarter
Jan 26
Full

Hourly Weather History & Observations

Time (EST) Temp. Windchill Dew Point Humidity Pressure Visibility Wind Dir Wind Speed Gust Speed Precip Events Conditions
12:15 AM 50.0 °F - 48.2 °F 94% 29.93 in 10.0 mi Calm Calm - N/A   Clear
12:35 AM 50.0 °F - 48.2 °F 94% 29.92 in 10.0 mi Calm Calm - N/A   Clear
12:55 AM 50.0 °F - 48.2 °F 94% 29.91 in 10.0 mi Calm Calm - N/A   Partly Cloudy
1:15 AM 50.0 °F - 48.2 °F 94% 29.89 in 9.0 mi Calm Calm - N/A   Scattered Clouds
1:35 AM 50.0 °F - 48.2 °F 94% 29.88 in 9.0 mi Calm Calm - N/A   Mostly Cloudy
1:55 AM 51.8 °F - 50.0 °F 94% 29.86 in 7.0 mi Calm Calm - N/A   Scattered Clouds
2:15 AM 53.6 °F - 51.8 °F 94% 29.85 in 7.0 mi Calm Calm - N/A   Light Drizzle
2:35 AM 53.6 °F - 51.8 °F 94% 29.84 in 5.0 mi Calm Calm - N/A Rain Light Rain
2:55 AM 53.6 °F - 53.6 °F 100% 29.84 in 2.5 mi Calm Calm - 0.04 in Rain Rain
3:15 AM 53.6 °F - 53.6 °F 100% 29.79 in 2.5 mi Calm Calm - 0.03 in Rain Light Rain
3:35 AM 53.6 °F - 53.6 °F 100% 29.79 in 4.0 mi East 3.5 mph - 0.04 in   Overcast
3:55 AM 55.4 °F - 53.6 °F 94% 29.76 in 3.0 mi ESE 4.6 mph - 0.04 in   Light Drizzle
4:15 AM 55.4 °F - 55.4 °F 100% 29.75 in 3.0 mi SE 4.6 mph - N/A Rain Light Rain
4:35 AM 57.2 °F - 55.4 °F 94% 29.74 in 3.0 mi SE 8.1 mph - N/A   Light Drizzle
4:55 AM 57.2 °F - 57.2 °F 100% 29.72 in 1.5 mi SE 5.8 mph - 0.08 in Rain Rain
5:15 AM 60.8 °F - 60.8 °F 100% 29.70 in 1.8 mi South 11.5 mph 18.4 mph 0.04 in Rain Heavy Rain
5:35 AM 64.4 °F - 64.4 °F 100% 29.69 in 0.5 mi South 12.7 mph 25.3 mph 1.11 in Rain Heavy Rain
5:55 AM 64.4 °F - 64.4 °F 100% 29.69 in 1.0 mi SSW 9.2 mph - 1.68 in Rain Heavy Rain
6:15 AM 66.2 °F - 64.4 °F 94% 29.69 in 8.0 mi SSW 18.4 mph 26.5 mph 0.01 in Rain Heavy Rain
6:35 AM 60.8 °F - 57.2 °F 88% 29.72 in 2.0 mi WNW 12.7 mph - 0.21 in Rain Heavy Rain
6:55 AM 53.6 °F - 51.8 °F 94% 29.75 in 4.0 mi NNW 13.8 mph - 0.55 in Rain Heavy Rain
7:15 AM 50.0 °F - 50.0 °F 100% 29.76 in 2.0 mi NNW 8.1 mph - 0.02 in Rain Rain
7:35 AM 48.2 °F - 48.2 °F 100% 29.75 in 7.0 mi NNW 6.9 mph - 0.03 in Rain Light Rain
7:55 AM 48.2 °F - 48.2 °F 100% 29.76 in 1.0 mi NW 5.8 mph - 0.11 in Rain Light Rain
8:15 AM 48.2 °F - 48.2 °F 100% 29.76 in 3.0 mi NW 4.6 mph - N/A   Light Drizzle
8:35 AM 50.0 °F - 48.2 °F 94% 29.75 in 2.5 mi Calm Calm - N/A   Light Drizzle
8:55 AM 50.0 °F - 50.0 °F 100% 29.76 in 9.0 mi WNW 3.5 mph - N/A   Overcast
9:15 AM 51.8 °F - 50.0 °F 94% 29.77 in 9.0 mi West 4.6 mph - N/A   Overcast
9:35 AM 51.8 °F - 50.0 °F 94% 29.77 in 10.0 mi WNW 4.6 mph - N/A   Overcast
9:55 AM 53.6 °F - 51.8 °F 94% 29.79 in 10.0 mi West 6.9 mph - N/A   Overcast
10:15 AM 55.4 °F - 53.6 °F 94% 29.79 in 7.0 mi WNW 8.1 mph - N/A   Overcast
10:35 AM 55.4 °F - 53.6 °F 94% 29.79 in 10.0 mi West 12.7 mph 18.4 mph N/A   Overcast
10:55 AM 57.2 °F - 53.6 °F 88% 29.80 in 10.0 mi WNW 12.7 mph 20.7 mph N/A   Overcast
11:15 AM 59.0 °F - 53.6 °F 82% 29.79 in 10.0 mi WNW 11.5 mph 19.6 mph N/A   Mostly Cloudy
11:35 AM 59.0 °F - 51.8 °F 77% 29.79 in 10.0 mi NW 19.6 mph 26.5 mph N/A   Mostly Cloudy
11:55 AM 57.2 °F - 48.2 °F 72% 29.79 in 10.0 mi WNW 19.6 mph 26.5 mph N/A   Mostly Cloudy
12:15 PM 59.0 °F - 50.0 °F 72% 29.80 in 10.0 mi WNW 19.6 mph 25.3 mph N/A   Mostly Cloudy
12:35 PM 59.0 °F - 48.2 °F 67% 29.78 in 10.0 mi West 16.1 mph 25.3 mph N/A   Mostly Cloudy
12:55 PM 57.2 °F - 46.4 °F 67% 29.78 in 10.0 mi NW 12.7 mph 26.5 mph N/A   Scattered Clouds
1:15 PM 59.0 °F - 48.2 °F 67% 29.77 in 10.0 mi West 17.3 mph 25.3 mph N/A   Clear
1:35 PM 57.2 °F - 46.4 °F 67% 29.78 in 10.0 mi West 15.0 mph 21.9 mph N/A   Partly Cloudy
1:55 PM 59.0 °F - 46.4 °F 63% 29.78 in 10.0 mi WNW 13.8 mph 21.9 mph N/A   Clear
2:15 PM 59.0 °F - 46.4 °F 63% 29.78 in 10.0 mi West 12.7 mph 19.6 mph N/A   Clear
2:35 PM 57.2 °F - 44.6 °F 63% 29.77 in 10.0 mi West 11.5 mph 21.9 mph N/A   Clear
2:55 PM 59.0 °F - 44.6 °F 59% 29.79 in 10.0 mi West 13.8 mph 20.7 mph N/A   Clear
3:35 PM 57.2 °F - 42.8 °F 59% 29.80 in 10.0 mi West 13.8 mph 20.7 mph N/A   Clear
3:55 PM 57.2 °F - 42.8 °F 59% 29.81 in 10.0 mi WNW 15.0 mph 19.6 mph N/A   Clear
4:15 PM 57.2 °F - 42.8 °F 59% 29.82 in 10.0 mi WNW 11.5 mph 23.0 mph N/A   Clear
4:35 PM 55.4 °F - 41.0 °F 58% 29.83 in 10.0 mi West 20.7 mph 25.3 mph N/A   Clear
4:55 PM 53.6 °F - 41.0 °F 62% 29.84 in 10.0 mi West 15.0 mph 24.2 mph N/A   Clear
5:15 PM 53.6 °F - 42.8 °F 67% 29.85 in 10.0 mi WNW 13.8 mph 21.9 mph N/A   Clear
5:35 PM 51.8 °F - 41.0 °F 67% 29.86 in 10.0 mi West 15.0 mph 21.9 mph N/A   Scattered Clouds
5:55 PM 51.8 °F - 39.2 °F 62% 29.88 in 10.0 mi WNW 16.1 mph 25.3 mph N/A   Mostly Cloudy
6:15 PM 50.0 °F - 39.2 °F 66% 29.90 in 10.0 mi West 15.0 mph 25.3 mph N/A   Overcast
6:35 PM 50.0 °F - 39.2 °F 66% 29.90 in 10.0 mi WNW 9.2 mph 24.2 mph N/A   Overcast
6:55 PM 50.0 °F - 39.2 °F 66% 29.91 in 10.0 mi West 9.2 mph 20.7 mph N/A   Mostly Cloudy
7:15 PM 50.0 °F - 39.2 °F 66% 29.92 in 10.0 mi WNW 11.5 mph - N/A   Mostly Cloudy
7:35 PM 50.0 °F - 39.2 °F 66% 29.92 in 10.0 mi West 11.5 mph 18.4 mph N/A   Overcast
8:15 PM 48.2 °F - 37.4 °F 66% 29.95 in 10.0 mi WNW 18.4 mph 23.0 mph N/A   Overcast
8:35 PM 48.2 °F - 37.4 °F 66% 29.97 in 10.0 mi WNW 11.5 mph 20.7 mph N/A   Mostly Cloudy
8:55 PM 48.2 °F - 35.6 °F 62% 29.98 in 10.0 mi WNW 12.7 mph 28.8 mph N/A   Mostly Cloudy
9:15 PM 48.2 °F - 35.6 °F 62% 29.99 in 10.0 mi West 13.8 mph 21.9 mph N/A   Overcast
9:35 PM 48.2 °F - 35.6 °F 62% 29.99 in 10.0 mi WNW 9.2 mph 21.9 mph N/A   Mostly Cloudy
9:55 PM 46.4 °F 41.9 °F 35.6 °F 66% 30.00 in 10.0 mi WNW 9.2 mph 21.9 mph N/A   Mostly Cloudy
10:15 PM 46.4 °F 40.4 °F 33.8 °F 62% 30.02 in 10.0 mi NW 13.8 mph 28.8 mph N/A   Partly Cloudy
10:35 PM 44.6 °F 37.4 °F 32.0 °F 61% 30.03 in 10.0 mi WNW 16.1 mph 24.2 mph N/A   Clear
10:55 PM 44.6 °F 38.8 °F 32.0 °F 61% 30.04 in 10.0 mi WNW 11.5 mph 20.7 mph N/A   Clear
11:15 PM 44.6 °F 38.8 °F 32.0 °F 61% 30.05 in 10.0 mi WNW 11.5 mph 25.3 mph N/A   Clear
11:35 PM 44.6 °F 38.8 °F 32.0 °F 61% 30.06 in 10.0 mi WNW 11.5 mph 19.6 mph N/A   Clear
11:55 PM 42.8 °F 36.2 °F 32.0 °F 66% 30.06 in 10.0 mi WNW 12.7 mph - N/A   Clear